Total_Precipitation_Accumulation
0.33 0.43 0.43 0.40 0.40 0.40 0.43 0.49 0.63 0.73 0.92 1.08 1.09 1.14 1.29 1.16 1.03 0.99 0.91 0.91 0.93 0.88 0.81 0.79 0.82 0.93 1.14 1.34 1.50 1.65 1.91 2.04 2.14 2.20 2.23 2.30 2.31 2.37 2.36 2.27 2.27 2.52 2.53 2.49
0.38 0.46 0.46 0.41 0.40 0.36 0.36 0.34 0.42 0.64 0.93 0.92 0.88 0.93 1.10 1.11 1.20 1.20 1.09 0.91 0.83 0.83 0.86 0.89 0.83 0.86 0.94 1.13 1.35 1.55 1.80 1.95 2.03 2.16 2.30 2.32 2.31 2.36 2.35 2.38 2.44 2.48 2.40 2.37
0.51 0.55 0.64 0.65 0.51 0.49 0.49 0.46 0.54 0.80 0.96 0.80 0.80 0.84 0.92 0.99 1.14 1.12 1.08 1.16 1.13 1.03 1.10 1.02 1.00 1.01 1.02 1.08 1.31 1.54 1.74 1.87 1.98 2.10 2.20 2.23 2.19 2.33 2.45 2.41 2.34 2.23 2.18 2.18
0.54 0.73 1.03 0.78 0.50 0.45 0.48 0.55 0.54 0.63 0.70 0.68 0.73 0.76 0.88 1.03 1.03 0.98 0.89 0.95 1.13 1.20 1.22 1.18 1.12 1.19 1.20 1.24 1.38 1.58 1.79 1.92 2.00 2.12 2.15 2.18 2.20 2.17 2.19 2.21 2.19 2.17 2.05 2.04
0.68 0.82 0.86 0.76 0.61 0.59 0.61 0.71 0.56 0.57 0.65 0.71 0.80 0.89 1.06 0.94 0.90 0.96 0.90 0.98 1.04 1.08 1.15 1.30 1.33 1.36 1.40 1.52 1.66 1.69 1.81 1.99 2.13 2.19 2.18 2.19 2.20 2.14 2.15 2.15 2.11 2.12 2.08 2.09
0.75 1.02 1.13 0.92 0.67 0.68 0.80 1.24 0.85 0.72 0.83 0.93 0.93 1.23 1.32 0.96 1.00 1.11 0.94 0.93 1.02 1.08 1.11 1.28 1.44 1.52 1.55 1.65 1.81 1.81 1.88 2.01 2.10 2.17 2.27 2.19 2.28 2.35 2.33 2.24 2.18 2.19 2.18 2.12
0.81 1.08 1.20 0.85 0.66 0.80 1.50 1.73 1.05 0.93 1.01 1.10 1.15 1.16 1.08 0.94 1.10 1.24 1.06 0.98 0.94 1.04 1.29 1.41 1.50 1.64 1.71 1.67 1.71 1.75 1.90 2.02 2.11 2.20 2.29 2.27 2.33 2.38 2.39 2.34 2.33 2.21 2.05 2.03
1.08 1.43 1.61 0.97 0.89 1.27 1.50 1.19 1.10 1.06 1.05 1.07 1.04 0.99 0.93 0.89 1.00 1.15 1.20 1.25 1.29 1.38 1.48 1.52 1.57 1.73 1.85 1.88 1.82 1.90 1.99 1.99 2.10 2.24 2.08 2.08 2.32 2.41 2.43 2.44 2.39 2.25 2.11 2.01
1.41 1.56 1.42 1.28 1.30 1.33 1.22 1.28 1.23 1.10 1.09 1.06 1.06 1.04 1.05 1.00 0.94 1.07 1.26 1.30 1.35 1.40 1.42 1.50 1.61 1.72 1.93 1.98 1.94 1.94 2.02 2.05 2.08 2.13 2.23 2.29 2.34 2.42 2.39 2.33 2.29 2.25 2.19 2.06
1.70 1.66 1.49 1.50 1.44 1.38 1.33 1.35 1.27 1.17 1.21 1.16 1.20 1.32 1.30 1.24 1.19 1.10 1.11 1.15 1.22 1.36 1.40 1.56 1.75 1.89 2.09 2.11 2.05 2.08 2.17 2.27 2.25 2.18 2.22 2.37 2.52 2.50 2.42 2.27 2.30 2.34 2.22 2.19
2.11 2.03 1.78 1.61 1.42 1.31 1.25 1.20 1.15 1.15 1.21 1.25 1.23 1.35 1.39 1.48 1.49 1.40 1.28 1.26 1.37 1.55 1.68 1.77 1.86 1.91 2.06 2.21 2.29 2.38 2.40 2.41 2.44 2.44 2.45 2.52 2.49 2.45 2.44 2.37 2.32 2.36 2.31 2.27
2.44 2.06 1.88 1.81 1.59 1.50 1.30 1.20 1.17 1.18 1.18 1.24 1.24 1.32 1.31 1.41 1.56 1.57 1.58 1.63 1.60 1.60 1.76 1.85 1.87 1.95 2.08 2.33 2.59 2.79 2.72 2.59 2.62 2.68 2.68 2.60 2.58 2.39 2.26 2.17 2.11 2.01 2.03 2.02
2.12 1.86 1.72 1.60 1.57 1.59 1.45 1.29 1.25 1.26 1.25 1.31 1.41 1.38 1.39 1.46 1.52 1.60 1.63 1.75 1.80 1.72 1.73 1.82 1.84 1.95 2.07 2.20 2.48 2.79 2.87 2.84 2.71 2.64 2.61 2.58 2.64 2.62 2.50 2.34 2.26 2.10 1.96 1.86
1.95 1.97 1.88 1.69 1.58 1.54 1.58 1.49 1.34 1.35 1.30 1.30 1.43 1.56 1.56 1.48 1.50 1.58 1.59 1.64 1.68 1.69 1.70 1.68 1.66 1.72 1.94 2.21 2.47 2.65 2.72 2.73 2.67 2.64 2.57 2.54 2.63 2.69 2.60 2.53 2.48 2.31 2.09 1.96
1.91 2.00 1.94 1.71 1.71 1.61 1.52 1.49 1.52 1.67 1.50 1.39 1.44 1.67 1.69 1.51 1.48 1.56 1.57 1.52 1.55 1.63 1.69 1.65 1.68 1.73 1.85 2.15 2.50 2.65 2.64 2.63 2.57 2.53 2.61 2.71 2.73 2.79 2.72 2.66 2.60 2.49 2.23 2.04
1.95 1.98 1.89 1.77 1.78 1.72 1.58 1.60 1.69 1.75 1.57 1.45 1.46 1.65 1.85 1.74 1.56 1.55 1.54 1.57 1.65 1.66 1.70 1.70 1.74 1.84 1.95 2.16 2.46 2.63 2.71 2.72 2.66 2.50 2.46 2.58 2.73 2.69 2.69 2.67 2.56 2.47 2.36 2.15
2.11 2.26 2.06 1.87 1.84 1.75 1.71 1.72 1.77 1.80 1.76 1.68 1.62 1.66 1.77 1.72 1.72 1.71 1.68 1.71 1.82 1.82 1.81 1.81 1.82 1.89 1.97 2.14 2.34 2.37 2.43 2.38 2.35 2.23 2.21 2.25 2.43 2.50 2.54 2.61 2.47 2.33 2.25 2.17
2.12 2.22 2.09 1.88 1.80 1.84 1.85 1.76 1.73 1.81 1.91 1.85 1.76 1.84 1.97 2.01 2.07 2.04 1.89 1.81 1.87 1.91 1.91 1.90 1.87 1.90 1.97 2.07 2.27 2.26 2.24 2.21 2.10 2.01 2.05 2.15 2.28 2.37 2.46 2.54 2.47 2.38 2.25 2.15
2.08 2.06 1.92 1.82 1.78 1.86 1.99 1.92 1.76 1.73 1.82 1.86 1.86 1.92 2.01 2.13 2.13 2.10 2.04 2.04 2.09 2.19 2.15 2.04 2.02 1.84 1.93 2.07 2.27 2.41 2.38 2.29 2.24 2.20 2.13 2.21 2.20 2.25 2.40 2.40 2.34 2.33 2.24 2.09
2.05 2.00 1.94 1.96 1.88 1.91 1.96 1.92 1.84 1.70 1.67 1.74 1.81 1.85 1.95 2.10 2.17 2.16 2.10 2.06 2.12 2.21 2.22 2.12 1.84 1.77 1.83 2.02 2.25 2.26 2.39 2.40 2.30 2.17 2.09 2.05 2.08 2.20 2.27 2.19 2.07 2.03 1.99 1.89
2.18 2.16 2.20 2.14 2.10 2.06 2.03 1.94 1.81 1.71 1.67 1.72 1.83 1.91 1.99 2.16 2.27 2.26 2.29 2.25 2.12 2.03 1.89 1.86 1.72 1.73 1.73 1.87 2.01 2.05 2.22 2.31 2.32 2.22 2.08 1.96 1.92 1.94 1.91 1.86 1.80 1.75 1.73 1.74
2.27 2.16 2.12 1.94 1.88 1.92 1.88 1.75 1.60 1.55 1.58 1.64 1.75 1.83 1.91 2.02 2.18 2.16 2.07 2.16 2.08 2.00 1.74 1.64 1.67 1.81 1.83 1.78 1.72 1.87 2.04 2.08 2.07 2.00 1.87 1.75 1.74 1.75 1.72 1.64 1.59 1.53 1.48 1.46
2.16 1.95 1.86 1.77 1.68 1.68 1.64 1.56 1.41 1.40 1.46 1.51 1.66 1.84 1.96 1.94 1.95 2.03 1.99 1.81 1.71 1.69 1.58 1.60 1.65 1.69 1.64 1.57 1.65 1.74 1.82 1.86 1.87 1.86 1.81 1.72 1.66 1.67 1.60 1.46 1.41 1.35 1.30 1.26
1.91 1.69 1.61 1.54 1.45 1.41 1.41 1.36 1.26 1.25 1.27 1.35 1.46 1.63 1.86 1.95 1.83 1.64 1.66 1.65 1.51 1.38 1.33 1.42 1.44 1.44 1.43 1.37 1.48 1.59 1.64 1.65 1.67 1.64 1.58 1.55 1.52 1.53 1.43 1.32 1.25 1.20 1.20 1.17
1.80 1.66 1.56 1.45 1.41 1.35 1.26 1.23 1.24 1.25 1.28 1.39 1.45 1.49 1.67 1.85 1.86 1.59 1.37 1.27 1.25 1.15 1.08 1.09 1.07 1.09 1.07 1.08 1.13 1.23 1.34 1.41 1.45 1.46 1.41 1.43 1.46 1.47 1.40 1.31 1.22 1.18 1.15 1.13
1.75 1.67 1.64 1.51 1.43 1.41 1.35 1.31 1.36 1.36 1.42 1.56 1.56 1.45 1.50 1.57 1.56 1.41 1.24 1.12 1.09 1.11 0.99 0.94 0.90 0.85 0.77 0.75 0.80 0.93 1.02 1.12 1.19 1.19 1.20 1.28 1.37 1.40 1.37 1.34 1.29 1.24 1.21 1.17
1.63 1.57 1.56 1.47 1.36 1.35 1.39 1.40 1.45 1.47 1.58 1.79 1.80 1.57 1.47 1.47 1.45 1.39 1.34 1.23 1.16 1.16 1.05 0.95 0.91 0.86 0.79 0.76 0.75 0.83 0.87 0.92 0.99 1.06 1.11 1.14 1.20 1.30 1.31 1.30 1.32 1.26 1.18 1.11